Location: Unspecified
(0.0000°N, 0.0000°E)
Time: 17:33:03
(UTC+00:00)

Vanguard 1 Rocket - Pass Details

Date: 12 December 2017
Orbit: 656 x 4222 km, 34.3° (Epoch: 18 January)

Event Time Altitude Azimuth Distance (km) Brightness Sun altitude
Rises 16:35:48 0° 290° (WNW) 3,941 11.4 17.9°
Reaches altitude 10° 16:39:35 10° 313° (NW) 3,449 10.7 17.0°
Maximum altitude 16:44:43 16° 348° (NNW) 3,640 10.4 15.9°
Drops below altitude 10° 16:51:47 10° 21° (NNE) 4,983 10.8 14.3°
Sets 16:59:42 0° 40° (NE) 6,863 11.3 12.4°
